Regional Weather Roundup
Issued by NWS Cleveland, OH

Home | Current Version | Previous Version | Graphics & Text | Print | Product List | Glossary On
Versions: 1 2 3 4 5 6 7 8 9 10 11 12 13 14 15 16 17 18 19 20 21 22 23 24 25 26 27 28 29 30 31 32 33 34 35 36 37 38 39 40 41 42 43 44 45 46 47 48 49 50
000
ASUS41 KCLE 300100
RWRCLE
OHIO REGIONAL WEATHER ROUNDUP
NATIONAL WEATHER SERVICE WILMINGTON, OH
900 PM EDT FRI AUG 29 2014

NOTE: "FAIR" INDICATES FEW OR NO CLOUDS BELOW 12,000 FEET WITH NO
SIGNIFICANT WEATHER AND/OR OBSTRUCTIONS TO VISIBILITY.

OHZ001>008-015>018-024>027-034-035-043-044-300200-
   NORTHWEST OHIO

CITY           SKY/WX    TMP DP  RH WIND       PRES   REMARKS
DEFIANCE       CLEAR     79  65  62 SE7       30.01S
FINDLAY        CLEAR     75  63  66 SE6       30.03R
TOLEDO EXPRESS CLEAR     75  62  64 SE3       30.02R
TOLEDO METCALF CLEAR     71  63  75 E6        30.04R
LIMA           CLEAR     75  66  73 SE8       30.03S
$$

OHZ009>014-019>023-028>033-038-089-300200-
   NORTHEAST OHIO

CITY           SKY/WX    TMP DP  RH WIND       PRES   REMARKS
CLE-HOPKINS    CLEAR     70  54  56 SE7       30.08S
CLE-LAKEFRONT  CLEAR     76  52  43 SE6       30.05S
CUY CO. ARPT   NOT AVBL
LORAIN-ELYRIA  CLEAR     72  57  59 S5        30.07S
ASHTABULA      CLEAR     63  58  83 SE5       30.10S
AKRON-CANTON   PTCLDY    72  53  51 SE5       30.09S
WOOSTER        NOT AVBL
MANSFIELD      CLEAR     71  60  68 SE8       30.08S
YOUNGSTOWN     PTCLDY    63  57  81 E5        30.11R
$$

OHZ042-051>053-060>062-070>072-077>081-300200-
  SOUTHWEST OHIO

CITY           SKY/WX    TMP DP  RH WIND       PRES   REMARKS
CINC-COVINGTON MOCLDY    80  69  69 SE8       30.03R
CINC-LUNKEN    PTCLDY    76  70  82 S3        30.02R
HAMILTON       LGT RAIN  76  73  91 VRB3      30.02R FOG
DAYTON         NOT AVBL
WRIGHT-PAT AFB PTCLDY    79  66  64 E6        30.03R
DAYTON GENERAL MOCLDY    79  66  64 E6        30.02R THUNDER
WILMINGTON     PTCLDY    76  65  68 SE5       30.05R
$$

OHZ036-037-039>041-045>050-054>059-063>069-073>076-082>088-300200-
  CENTRAL AND SOUTHEAST OHIO

CITY           SKY/WX    TMP DP  RH WIND       PRES   REMARKS
COLUMBUS       MOCLDY    79  62  56 E7        30.05R
OSU AIRPORT    MOCLDY    75  62  64 E7        30.05R
BOLTON FIELD   NOT AVBL
RICKENBACK AFB NOT AVBL
NEWARK         PTCLDY    69  63  81 CALM      30.06R
MARION         CLEAR     73  62  68 SE7       30.06R
LANCASTER      MOCLDY    73  64  73 SE6       30.07R
ZANESVILLE     CLEAR     72  61  68 E3        30.07S
NEW PHILLY     CLEAR     65  60  84 SE5       30.10R
$$



USA.gov is the U.S. government's official web portal to all federal, state and local government web resources and services.